Back to catalog

STARLINK-31983

AliveCommunicationsVLEO
NORAD 60602·PAYLOAD·🇺🇸 United States

Launched Aug 20, 2024 from Cape Canaveral Space Force Station

Loading…

Next Passes (next 24 hours)

TLE

FreshSource: CelesTrak SupGP

Epoch: Sep 14, 2026, 20:49 UTC

1 60602C 24150V   26257.86784722 -.00033336  00000+0 -98455-3 0  2572
2 60602  53.1565 144.0444 0001431  96.0438 335.5660 15.34418880    12

Track STARLINK-31983 in real time with AllMySat

Download on the App Store